Location: Chery
(49.7195°N, 4.0941°E)
Time: 07:17:18
(UTC+00:00)

Daily predictions for brighter satellites

Satellite Brightness Start Highest point End
(mag) Time Altitude Azimuth Time Altitude Azimuth Time Altitude Azimuth
BREEZE-M DEB (TANK) 4.5 16:07:15 10° WNW 16:11:18 73° N 16:28:27 10° E
Cosmos 1814 Rocket 4.2 16:17:55 10° S 16:23:08 57° ESE 16:28:20 10° NNE
Cosmos 2221 2.7 16:24:18 10° S 16:28:31 53° E 16:32:45 10° NNE
SL-08 R/B 4.3 16:25:15 10° N 16:30:02 50° WNW 16:34:43 10° SW
H-2A R/B 2.8 16:27:39 10° SSE 16:31:28 84° WSW 16:35:22 10° NNW
Cosmos 1500 Rocket 3.6 16:28:02 10° N 16:32:22 58° ENE 16:36:43 10° SSE
Abrixas rocket 3.4 16:29:50 10° W 16:32:24 33° SSW 16:34:56 10° SE
Cosmos 1570 Rocket 4.0 16:27:15 10° SSW 16:32:33 78° ESE 16:37:51 10° NNE
Meteor 2-2 Rocket 4.4 16:30:05 10° S 16:35:56 60° E 16:41:42 10° NNE
YAOGAN 6 2.6 16:32:41 10° SSE 16:36:19 62° ENE 16:39:55 10° N
CZ-4C R/B 3.1 16:34:39 10° NNE 16:38:15 60° ESE 16:41:50 10° S
NOSS 2-1 (C) 4.4 16:33:24 10° NW 16:38:18 82° SW 16:45:16 10° SE
Cosmos 405 Rocket 2.7 16:36:45 10° N 16:40:37 63° ENE 16:44:31 10° SSE
Cosmos 2297 4.5 16:37:33 10° NNW 16:42:32 30° NE 16:47:30 10° ESE
ADEOS Rocket 3.6 16:35:32 10° NNE 16:43:12 83° ESE 16:51:01 10° SSW
Cosmos 1943 Rocket 3.3 16:41:25 10° N 16:45:40 22° NE 16:49:54 10° E
Cosmos 405 2.9 16:43:12 10° S 16:46:42 87° E 16:50:12 10° NNE
YAOGAN 1 4.3 16:44:47 10° E 16:46:56 14° ENE 16:49:05 10° NNE
Cosmos 389 Rocket 3.9 16:45:04 10° SE 16:47:28 18° E 16:49:21 12° NE
Cosmos 44 4.2 16:44:14 10° NNW 16:48:55 32° NE 16:53:44 10° E
BREEZE-M DEB (TANK) 2.7 16:49:23 10° SW 16:51:30 33° SSE 16:53:03 14° E
H-2A R/B 2.8 16:47:14 10° S 16:51:35 75° WSW 16:55:48 10° NNW
Cosmos 2322 Rocket 4.0 16:47:30 10° W 16:52:05 24° NW 16:56:41 10° NNE
USA 215 4.0 16:47:51 11° ENE 16:53:42 38° SE 16:59:42 10° SSW
SL-16 R/B 3.6 16:50:51 10° SE 16:54:26 17° E 16:56:52 13° ENE
Cosmos 1743 Rocket 3.7 16:50:13 10° N 16:54:44 85° W 16:59:11 10° S
COSMO-SKYMED 1 3.9 16:52:07 11° NE 16:55:02 19° E 16:58:10 10° SE
NOAA 6 4.5 16:51:04 10° S 16:56:12 69° WSW 17:01:22 10° NNW
Cosmos 2298 Rocket 4.2 16:51:08 10° NNW 16:56:28 80° WSW 17:01:46 10° SSE
CZ-2C R/B 4.1 16:53:14 10° ESE 16:57:01 22° ENE 17:00:42 10° NNE
Cosmos 2150 Rocket 4.1 16:52:41 10° NNW 16:57:53 84° WSW 17:03:02 10° SSE
Okean-O 3.9 16:55:03 10° ESE 16:58:15 20° ENE 17:01:28 10° NNE
Cosmos 1818 3.7 16:53:49 10° NW 16:59:20 83° SW 17:04:47 10° SE
Cosmos 1900 4.4 16:56:23 10° SSW 17:01:30 83° SE 17:06:28 11° NE
AQUARIUS 4.1 16:57:46 10° SSE 17:02:15 78° ENE 17:06:46 10° NNW
Sich 1 3.2 16:59:34 10° N 17:03:52 48° ENE 17:08:05 10° SSE
Cosmos 1606 3.4 17:01:31 10° SSE 17:05:02 34° E 17:08:35 10° NNE
Cosmos 2366 rocket 4.5 17:02:41 10° N 17:08:22 35° ENE 17:13:58 10° SE
Okean O Rocket 1.6 17:04:54 10° SSE 17:09:15 88° WSW 17:13:40 10° NNW
Cosmos 1842 Rocket 4.2 17:05:04 10° SSW 17:09:19 56° WNW 17:13:36 10° N
Cosmos 2333 Rocket 2.9 17:04:03 10° SW 17:09:37 54° NW 17:15:12 10° NNE
Helios 1A Rocket 4.0 17:07:40 10° ESE 17:10:49 22° ENE 17:13:59 10° N
ISS -3.0 17:08:41 10° SW 17:11:52 40° SSE 17:13:33 22° E
Nadezhda 1 Rocket 4.0 17:06:20 10° S 17:12:40 85° E 17:19:06 10° N
Cosmos 1125 Rocket 3.5 17:07:27 10° NNW 17:12:42 87° WSW 17:17:54 10° SSE
Cosmos 1356 3.6 17:10:18 10° N 17:13:38 46° ENE 17:16:56 10° SSE
Cosmos 1805 Rocket 3.5 17:10:20 10° N 17:14:50 81° E 17:19:17 10° SSE
COSMOS 2428 3.2 17:09:24 10° SW 17:15:05 62° WNW 17:20:48 10° NNE
Feng Yun 1-1 Rocket 4.3 17:11:31 10° SSE 17:17:12 60° ENE 17:22:47 10° N
CZ-4B R/B 1.5 17:17:16 23° NE 17:18:47 41° E 17:21:44 10° S
Cosmos 2278 Rocket 2.9 17:14:17 10° NW 17:19:51 58° WSW 17:25:24 10° S
Cosmos 1666 Rocket 3.8 17:16:45 10° N 17:21:01 47° ENE 17:25:17 10° SSE
Cosmos 1151 Rocket 3.9 17:18:45 10° SSE 17:22:21 27° E 17:23:24 24° ENE
Cosmos 2154 Rocket 4.4 17:17:45 10° NNW 17:24:04 71° W 17:30:22 10° S
CRYOSAT 2 4.4 17:19:43 10° N 17:24:38 87° W 17:29:32 10° S
Cosmos 1862 4.5 17:20:59 10° NNW 17:24:52 46° W 17:28:42 10° SSW
IRS-1C Rocket 4.2 17:21:28 10° SE 17:26:36 55° ENE 17:31:46 10° N
Cosmos 962 Rocket 4.4 17:20:23 10° N 17:26:44 79° E 17:32:58 10° SSE
USA 267 3.2 17:21:44 10° ESE 17:28:11 79° NNE 17:34:45 10° WNW
Cosmos 1328 Rocket 4.4 17:24:37 10° SSE 17:28:16 27° E 17:28:37 27° E
Lacrosse 5 rocket 3.3 17:27:14 10° SSE 17:28:07 12° SE 17:28:07 12° SE
ERS-2 2.1 17:29:46 20° NNE 17:32:09 57° ESE 17:35:45 10° S
Cosmos 482 Debris 4.1 17:30:48 10° WNW 17:31:54 29° NW 17:31:54 29° NW
Cosmos 2360 Rocket 4.2 17:28:46 10° W 17:33:04 22° NW 17:37:23 10° N
Cosmos 2341 Rocket 3.9 17:26:46 10° N 17:33:04 79° E 17:39:24 10° SSE
SL-24 R/B 4.5 17:32:45 30° ENE 17:33:45 34° E 17:37:17 10° SSE
Meteor 1-25 Rocket 4.2 17:28:16 10° N 17:33:48 56° ENE 17:39:21 10° SSE
NOSS 0 Rocket 4.0 17:28:44 10° SSW 17:34:59 82° WNW 17:40:49 12° NNE
CZ-2D R/B 3.3 17:32:31 10° SSE 17:36:12 49° ENE 17:39:55 10° N
CZ-4 R/B 1.7 17:38:23 31° ESE 17:39:30 39° ENE 17:43:15 10° N
H-2A R/B 3.1 17:36:28 10° N 17:40:25 44° WNW 17:44:25 10° SW
Cosmos 2219 Rocket 3.4 17:35:30 10° WSW 17:40:45 38° NW 17:46:00 10° NNE
TELKOM 3 4.4 17:39:30 10° SW 17:41:32 29° S 17:41:32 29° S
SMAP 4.5 17:38:47 10° SSW 17:43:09 40° W 17:47:34 10° NNW
SKYMED 2 3.6 17:40:45 21° NNE 17:43:28 54° E 17:47:43 10° S
BREEZE-M DEB (TANK) 3.2 17:41:35 10° SW 17:43:13 25° S 17:43:13 25° S
CZ-4B R/B 4.4 17:39:20 10° S 17:44:24 43° W 17:49:28 10° NNW
USA 81 4.0 17:39:29 10° N 17:44:46 66° E 17:50:00 10° SSE
CREW DRAGON DEMO-1 DEB 2.8 17:44:28 10° WNW 17:47:26 69° SSW 17:47:43 62° SSE
Cosmos 2285 Rocket 3.9 17:41:41 10° NNW 17:48:06 68° ENE 17:54:26 10° SSE
Cosmos 2237 Rocket 2.3 17:44:19 10° SSW 17:49:56 78° WNW 17:54:26 17° NNE
Cosmos 1633 Rocket 2.9 17:47:21 10° N 17:51:47 78° E 17:56:09 10° SSE
Cosmos 1939 Rocket 2.8 17:48:01 10° S 17:51:53 79° W 17:55:48 10° NNW
H-2A R/B 2.3 17:52:26 25° ESE 17:55:03 43° ENE 17:59:57 10° N
SL-8 Rocket 3.9 17:51:00 10° N 17:57:15 89° ENE 18:03:32 10° S
Cosmos 864 Rocket 4.4 17:50:55 10° N 17:57:16 73° E 18:03:32 10° SSE
Cosmos 773 Rocket 4.4 17:54:18 10° S 17:59:09 40° ESE 17:59:15 40° E
Cosmos 2369 Rocket 2.6 17:56:11 10° NNW 18:01:36 41° NE 18:02:10 40° ENE
CSL-04 Rocket 3.8 18:01:44 40° E 18:02:51 46° ENE 18:07:55 10° N
USA 281 3.1 17:56:22 10° SSE 18:02:57 87° ENE 18:09:34 10° NNW
MOS 1 Rocket 3.8 18:03:47 42° ENE 18:04:48 47° E 18:10:01 10° S
Cosmos 783 Rocket 4.5 18:00:26 10° S 18:05:39 61° ESE 18:07:10 43° NE
Cosmos 2181 Rocket 3.9 17:59:22 10° S 18:05:49 83° E 18:12:14 10° N
Cosmos 1959 Rocket 4.4 17:59:56 10° N 18:06:20 86° ENE 18:12:43 10° S
Cosmos 1980 4.3 18:02:38 10° SW 18:08:13 56° NW 18:12:27 18° NNE
Cosmos 1821 Rocket 4.2 18:05:00 10° N 18:10:54 44° ENE 18:11:29 43° E
Cosmos 1241 Rocket 4.5 18:06:49 10° NW 18:13:29 83° NE 18:17:23 27° SE
Cosmos 389 Rocket 4.1 18:18:49 10° SW 18:21:56 32° WNW 18:23:14 24° NNW
YAOGAN 1 2.4 18:21:23 53° SSE 18:22:23 88° WSW 18:26:46 10° NNW
SL-08 R/B 4.3 18:19:47 10° N 18:26:00 77° ENE 18:32:07 10° SSE
Cosmos 2297 4.1 18:21:29 10° NW 18:27:06 61° WSW 18:32:41 10° SSE
Cosmos 1470 Rocket 3.5 18:22:49 10° NNW 18:27:11 80° W 18:27:22 77° SW
Cosmos 1933 4.1 18:24:27 10° SSW 18:28:22 51° WNW 18:29:42 35° NNW
Cosmos 1943 Rocket 2.0 18:24:37 10° NNW 18:30:11 89° ENE 18:31:41 51° SSE
Meteor 1-14 Rocket 4.2 18:24:29 10° NNW 18:30:27 86° E 18:36:26 10° SSE
Cosmos 44 3.8 18:25:20 10° NW 18:30:34 67° SW 18:32:40 37° SSE
COSMO-SKYMED 1 3.3 18:29:20 26° N 18:31:31 52° WNW 18:35:44 10° SSW
Okean-O 3.2 18:30:00 10° S 18:34:21 58° W 18:38:45 10° NNW
PSLV R/B 4.5 18:36:53 55° WSW 18:36:53 55° WSW 18:40:19 10° SSW
CZ-2C R/B 3.3 18:31:26 10° S 18:36:32 63° WSW 18:41:25 10° NNW
USA 215 3.2 18:35:12 50° NE 18:37:07 83° NNW 18:43:41 10° WSW
Cosmos 1867 3.6 18:31:50 10° SW 18:37:17 80° NW 18:37:58 67° NNE
ARGOS 3.3 18:38:31 59° NNE 18:38:31 59° NNE 18:43:01 10° N
SL-16 R/B 2.1 18:32:07 10° SSW 18:37:47 86° WNW 18:38:47 62° NNE
Meteor 1-26 Rocket 4.5 18:37:01 10° SSW 18:43:01 76° WNW 18:47:59 16° N
Helios 1A Rocket 4.1 18:43:48 24° SSW 18:45:46 41° W 18:49:36 10° NNW
ISS -1.2 18:45:13 10° W 18:46:31 21° W 18:46:31 21° W
CZ-4B R/B 4.3 18:50:24 13° NW 18:50:43 13° WNW 18:52:15 10° W
Lacrosse 5 rocket 4.1 19:03:38 10° SW 19:03:47 11° SW 19:03:47 11° SW
USA 267 4.2 19:09:07 31° S 19:11:33 42° SW 19:17:42 10° WNW
CZ-4 R/B 3.7 19:14:25 21° W 19:14:42 21° W 19:17:48 10° NW
H-2A R/B 3.7 19:33:04 27° SW 19:34:35 32° W 19:39:15 10° NNW
Cosmos 2237 Rocket 4.3 19:30:52 10° W 19:34:58 20° NW 19:36:16 19° NNW
Cosmos 2369 Rocket 3.7 19:40:20 10° NW 19:43:59 33° WNW 19:43:59 33° WNW
